^^

Weather Underground History

Daily Summary for May 9, 2019 Units:  Metric    English   Both
Daily Weekly Monthly Yearly
  High: Low: Average:
Temperature: 8 °C 6 °C 6.9 °C
Dew Point: 7 °C 4 °C 5.7 °C
Humidity: 95% 87% 92%
Wind Speed: 8km/h 0km/h 3km/h
Wind Gust: 19km/h - -
Wind- - NE
Pressure: 1005.2 hPa 990.7 hPa -
Precipitation: 2.3 mm    
 
 
Tabular Data for May 9, 2019
Time Temperature Dew Point Pressure Wind Wind Speed Wind Gust Humidity Rainfall Rate (Hourly) solar
00:04 7 °C 6 °C 990.7 hPa NE 2 km/h 8 km/h 94% 0.0 mm 0 W/m2
00:09 7 °C 6 °C 990.7 hPa NE 2 km/h 6 km/h 94% 0.0 mm 0 W/m2
00:14 7 °C 6 °C 990.7 hPa NE 2 km/h 6 km/h 94% 0.0 mm 0 W/m2
00:19 7 °C 6 °C 990.7 hPa NE 2 km/h 8 km/h 94% 0.0 mm 0 W/m2
00:24 7 °C 6 °C 990.7 hPa NNE 1 km/h 8 km/h 94% 0.0 mm 0 W/m2
00:29 7 °C 6 °C 990.7 hPa NNE 2 km/h 8 km/h 94% 0.0 mm 0 W/m2
00:34 7 °C 6 °C 990.7 hPa NE 1 km/h 6 km/h 94% 0.0 mm 0 W/m2
00:39 7 °C 6 °C 990.8 hPa NE 1 km/h 8 km/h 94% 0.0 mm 0 W/m2
00:44 7 °C 6 °C 990.8 hPa NE 2 km/h 6 km/h 94% 0.0 mm 0 W/m2
00:49 7 °C 6 °C 990.8 hPa NE 3 km/h 8 km/h 94% 0.0 mm 0 W/m2
00:54 7 °C 6 °C 990.9 hPa NE 1 km/h 8 km/h 94% 0.0 mm 0 W/m2
00:59 7 °C 6 °C 991.0 hPa NNE 1 km/h 8 km/h 94% 0.0 mm 0 W/m2
01:04 7 °C 6 °C 991.1 hPa NE 1 km/h 8 km/h 94% 0.0 mm 0 W/m2
01:09 7 °C 6 °C 991.1 hPa NE 3 km/h 6 km/h 94% 0.0 mm 0 W/m2
01:14 7 °C 6 °C 991.2 hPa NNE 3 km/h 8 km/h 94% 0.0 mm 0 W/m2
01:19 7 °C 6 °C 991.2 hPa NNE 3 km/h 10 km/h 94% 0.0 mm 0 W/m2
01:24 7 °C 6 °C 991.2 hPa NNE 2 km/h 10 km/h 94% 0.0 mm 0 W/m2
01:29 7 °C 6 °C 991.2 hPa NNE 2 km/h 8 km/h 94% 0.0 mm 0 W/m2
01:34 7 °C 6 °C 991.2 hPa NE 6 km/h 13 km/h 94% 0.0 mm 0 W/m2
01:39 7 °C 6 °C 991.2 hPa NE 3 km/h 10 km/h 94% 0.0 mm 0 W/m2
01:44 7 °C 6 °C 991.2 hPa ENE 3 km/h 10 km/h 94% 0.0 mm 0 W/m2
01:49 7 °C 6 °C 991.1 hPa ENE 3 km/h 11 km/h 94% 0.0 mm 0 W/m2
01:54 7 °C 6 °C 991.2 hPa NE 2 km/h 11 km/h 94% 0.0 mm 0 W/m2
01:59 7 °C 6 °C 991.2 hPa NE 2 km/h 11 km/h 94% 0.0 mm 0 W/m2
02:04 7 °C 6 °C 991.2 hPa NE 3 km/h 10 km/h 94% 0.0 mm 0 W/m2
02:09 7 °C 6 °C 991.2 hPa NE 4 km/h 11 km/h 94% 0.0 mm 0 W/m2
02:14 7 °C 6 °C 991.2 hPa NE 4 km/h 11 km/h 94% 0.0 mm 0 W/m2
02:19 7 °C 6 °C 991.2 hPa NE 2 km/h 10 km/h 94% 0.0 mm 0 W/m2
02:24 7 °C 6 °C 991.3 hPa ENE 3 km/h 10 km/h 94% 0.0 mm 0 W/m2
02:29 7 °C 6 °C 991.4 hPa NE 1 km/h 8 km/h 94% 0.0 mm 0 W/m2
02:34 7 °C 6 °C 991.4 hPa NE 2 km/h 6 km/h 94% 0.0 mm 0 W/m2
02:39 7 °C 6 °C 991.4 hPa NE 2 km/h 8 km/h 94% 0.0 mm 0 W/m2
02:44 7 °C 6 °C 991.4 hPa NE 2 km/h 8 km/h 94% 0.0 mm 0 W/m2
02:49 7 °C 6 °C 991.5 hPa NNE 3 km/h 10 km/h 94% 0.0 mm 0 W/m2
02:54 7 °C 6 °C 991.5 hPa NNE 2 km/h 10 km/h 94% 0.0 mm 0 W/m2
02:59 7 °C 6 °C 991.6 hPa NNE 1 km/h 8 km/h 94% 0.0 mm 0 W/m2
03:04 7 °C 6 °C 991.7 hPa NNE 1 km/h 6 km/h 94% 0.0 mm 0 W/m2
03:09 7 °C 6 °C 991.8 hPa North 1 km/h 6 km/h 94% 0.0 mm 0 W/m2
03:14 7 °C 6 °C 991.8 hPa North 2 km/h 8 km/h 94% 0.0 mm 0 W/m2
03:19 7 °C 6 °C 991.9 hPa Calm   6 km/h 94% 0.0 mm 0 W/m2
03:24 7 °C 6 °C 991.9 hPa NNE 2 km/h 10 km/h 94% 0.0 mm 0 W/m2
03:29 7 °C 6 °C 991.9 hPa Calm   10 km/h 94% 0.0 mm 0 W/m2
03:34 7 °C 6 °C 992.0 hPa Calm   5 km/h 94% 0.0 mm 0 W/m2
03:39 7 °C 6 °C 992.0 hPa North 2 km/h 8 km/h 94% 0.0 mm 0 W/m2
03:44 7 °C 6 °C 992.0 hPa NNE 1 km/h 8 km/h 94% 0.0 mm 0 W/m2
03:49 7 °C 6 °C 992.0 hPa NNE 2 km/h 6 km/h 94% 0.0 mm 0 W/m2
03:54 7 °C 6 °C 992.1 hPa NNE 1 km/h 8 km/h 94% 0.0 mm 0 W/m2
03:59 7 °C 6 °C 992.1 hPa NNE 2 km/h 8 km/h 94% 0.0 mm 0 W/m2
04:04 7 °C 6 °C 992.1 hPa NE 2 km/h 8 km/h 94% 0.0 mm 0 W/m2
04:09 7 °C 6 °C 992.1 hPa NE 3 km/h 8 km/h 94% 0.0 mm 0 W/m2
04:14 7 °C 6 °C 992.1 hPa NNE 1 km/h 8 km/h 94% 0.0 mm 0 W/m2
04:19 7 °C 6 °C 992.1 hPa NNE 3 km/h 8 km/h 95% 0.0 mm 0 W/m2
04:24 7 °C 6 °C 992.2 hPa NNE 3 km/h 8 km/h 95% 0.0 mm 0 W/m2
04:29 7 °C 6 °C 992.1 hPa NNE 2 km/h 10 km/h 95% 0.0 mm 0 W/m2
04:34 7 °C 6 °C 992.1 hPa NE 3 km/h 11 km/h 95% 0.0 mm 0 W/m2
04:39 7 °C 6 °C 992.2 hPa NE 2 km/h 11 km/h 95% 0.0 mm 0 W/m2
04:44 7 °C 6 °C 992.2 hPa NNE 3 km/h 11 km/h 95% 0.0 mm 0 W/m2
04:49 7 °C 6 °C 992.4 hPa NE 3 km/h 8 km/h 95% 0.0 mm 0 W/m2
04:54 7 °C 6 °C 992.5 hPa NE 3 km/h 10 km/h 95% 0.0 mm 0 W/m2
04:59 7 °C 6 °C 992.5 hPa NE 3 km/h 11 km/h 95% 0.0 mm 0 W/m2
05:04 7 °C 6 °C 992.6 hPa East 1 km/h 10 km/h 95% 0.0 mm 0 W/m2
05:09 7 °C 6 °C 992.5 hPa ENE 3 km/h 11 km/h 95% 0.0 mm 0 W/m2
05:14 7 °C 6 °C 992.6 hPa NE 3 km/h 11 km/h 95% 0.0 mm 0 W/m2
05:19 7 °C 6 °C 992.7 hPa NE 5 km/h 11 km/h 95% 0.0 mm 0 W/m2
05:24 7 °C 6 °C 992.7 hPa NE 4 km/h 11 km/h 95% 0.0 mm 0 W/m2
05:29 7 °C 6 °C 992.8 hPa NE 5 km/h 13 km/h 95% 0.0 mm 0 W/m2
05:34 7 °C 6 °C 992.8 hPa NE 4 km/h 13 km/h 95% 0.0 mm 0 W/m2
05:39 7 °C 6 °C 992.9 hPa NE 5 km/h 11 km/h 95% 0.0 mm 0 W/m2
05:44 7 °C 6 °C 992.8 hPa NE 4 km/h 11 km/h 95% 0.0 mm 7 W/m2
05:49 7 °C 6 °C 992.9 hPa NE 6 km/h 13 km/h 95% 0.0 mm 7 W/m2
05:54 7 °C 6 °C 992.9 hPa NE 6 km/h 16 km/h 95% 0.0 mm 7 W/m2
05:59 7 °C 6 °C 993.0 hPa NE 4 km/h 16 km/h 95% 0.0 mm 7 W/m2
06:04 6 °C 6 °C 993.0 hPa NE 6 km/h 13 km/h 95% 0.0 mm 7 W/m2
06:09 6 °C 6 °C 993.1 hPa NNE 5 km/h 13 km/h 95% 0.0 mm 7 W/m2
06:14 6 °C 6 °C 993.2 hPa NE 5 km/h 13 km/h 95% 0.0 mm 12 W/m2
06:19 6 °C 6 °C 993.2 hPa NE 4 km/h 10 km/h 95% 0.0 mm 12 W/m2
06:24 6 °C 6 °C 993.3 hPa NE 5 km/h 14 km/h 95% 0.0 mm 16 W/m2
06:29 6 °C 6 °C 993.4 hPa NE 6 km/h 16 km/h 95% 0.0 mm 16 W/m2
06:34 6 °C 6 °C 993.4 hPa NE 4 km/h 11 km/h 95% 0.0 mm 12 W/m2
06:39 6 °C 6 °C 993.4 hPa NE 7 km/h 13 km/h 95% 0.0 mm 16 W/m2
06:44 6 °C 6 °C 993.5 hPa NNE 4 km/h 14 km/h 95% 0.0 mm 21 W/m2
06:49 6 °C 6 °C 993.5 hPa NE 5 km/h 14 km/h 95% 0.0 mm 23 W/m2
06:54 6 °C 6 °C 993.5 hPa NE 4 km/h 18 km/h 95% 0.0 mm 30 W/m2
06:59 6 °C 6 °C 993.7 hPa NE 3 km/h 18 km/h 95% 0.0 mm 33 W/m2
07:04 6 °C 6 °C 993.7 hPa NE 4 km/h 10 km/h 95% 0.0 mm 35 W/m2
07:09 6 °C 6 °C 993.8 hPa NE 4 km/h 11 km/h 95% 0.0 mm 35 W/m2
07:14 6 °C 6 °C 993.8 hPa NE 2 km/h 11 km/h 95% 0.0 mm 33 W/m2
07:19 6 °C 6 °C 993.9 hPa NE 6 km/h 13 km/h 95% 0.0 mm 30 W/m2
07:24 6 °C 6 °C 994.0 hPa NNE 4 km/h 13 km/h 95% 0.0 mm 47 W/m2
07:29 6 °C 6 °C 994.1 hPa NE 6 km/h 14 km/h 95% 0.0 mm 37 W/m2
07:34 6 °C 6 °C 994.1 hPa NE 5 km/h 14 km/h 95% 0.0 mm 28 W/m2
07:39 6 °C 6 °C 994.1 hPa NE 8 km/h 14 km/h 95% 0.0 mm 32 W/m2
07:44 6 °C 6 °C 994.2 hPa NE 5 km/h 14 km/h 95% 0.0 mm 35 W/m2
07:49 6 °C 6 °C 994.4 hPa NE 4 km/h 11 km/h 95% 0.0 mm 42 W/m2
07:54 6 °C 6 °C 994.4 hPa NE 3 km/h 11 km/h 95% 0.0 mm 46 W/m2
07:59 6 °C 6 °C 994.5 hPa ENE 6 km/h 11 km/h 94% 0.0 mm 42 W/m2
08:04 6 °C 6 °C 994.5 hPa NE 4 km/h 16 km/h 94% 0.0 mm 49 W/m2
08:09 6 °C 6 °C 994.5 hPa NE 5 km/h 16 km/h 95% 0.0 mm 46 W/m2
08:14 6 °C 6 °C 994.5 hPa NE 4 km/h 11 km/h 95% 0.0 mm 67 W/m2
08:19 6 °C 6 °C 994.5 hPa NE 3 km/h 11 km/h 95% 0.0 mm 107 W/m2
08:24 6 °C 6 °C 994.6 hPa NE 5 km/h 18 km/h 95% 0.0 mm 120 W/m2
08:29 7 °C 6 °C 994.6 hPa NE 7 km/h 18 km/h 94% 0.0 mm 104 W/m2
08:34 7 °C 6 °C 994.7 hPa NE 4 km/h 10 km/h 94% 0.0 mm 69 W/m2
08:39 7 °C 6 °C 994.8 hPa NE 5 km/h 13 km/h 94% 0.0 mm 79 W/m2
08:44 7 °C 6 °C 994.9 hPa NE 5 km/h 14 km/h 94% 0.0 mm 70 W/m2
08:49 7 °C 6 °C 995.0 hPa NE 3 km/h 11 km/h 94% 0.0 mm 83 W/m2
08:54 7 °C 6 °C 995.1 hPa NE 4 km/h 10 km/h 94% 0.0 mm 83 W/m2
08:59 7 °C 6 °C 995.1 hPa NE 3 km/h 11 km/h 94% 0.0 mm 77 W/m2
09:04 7 °C 6 °C 995.2 hPa NNE 6 km/h 13 km/h 94% 0.0 mm 84 W/m2
09:09 7 °C 6 °C 995.2 hPa NE 3 km/h 13 km/h 94% 0.0 mm 95 W/m2
09:14 7 °C 6 °C 995.2 hPa NE 4 km/h 11 km/h 94% 0.0 mm 111 W/m2
09:19 7 °C 6 °C 995.3 hPa NE 4 km/h 11 km/h 94% 0.0 mm 135 W/m2
09:24 7 °C 6 °C 995.4 hPa NE 4 km/h 13 km/h 94% 0.0 mm 118 W/m2
09:29 7 °C 6 °C 995.4 hPa ENE 4 km/h 16 km/h 94% 0.0 mm 113 W/m2
09:34 7 °C 6 °C 995.4 hPa NE 4 km/h 14 km/h 94% 0.0 mm 134 W/m2
09:39 7 °C 6 °C 995.4 hPa ENE 2 km/h 8 km/h 94% 0.0 mm 123 W/m2
09:44 7 °C 6 °C 995.5 hPa NE 5 km/h 11 km/h 94% 0.0 mm 132 W/m2
09:49 7 °C 6 °C 995.6 hPa NE 3 km/h 10 km/h 94% 0.0 mm 139 W/m2
09:54 7 °C 6 °C 995.7 hPa NE 4 km/h 11 km/h 93% 0.0 mm 160 W/m2
09:59 7 °C 6 °C 995.7 hPa NE 5 km/h 14 km/h 93% 0.0 mm 236 W/m2
10:04 7 °C 6 °C 995.8 hPa ENE 3 km/h 6 km/h 93% 0.0 mm 244 W/m2
10:09 7 °C 6 °C 995.8 hPa NE 6 km/h 19 km/h 93% 0.0 mm 174 W/m2
10:14 7 °C 6 °C 996.0 hPa NE 5 km/h 19 km/h 93% 0.0 mm 213 W/m2
10:19 7 °C 6 °C 996.0 hPa ENE 3 km/h 10 km/h 93% 0.0 mm 202 W/m2
10:24 7 °C 6 °C 996.1 hPa NE 4 km/h 11 km/h 93% 0.0 mm 190 W/m2
10:29 7 °C 6 °C 996.1 hPa ENE 4 km/h 8 km/h 92% 0.0 mm 239 W/m2
10:34 8 °C 6 °C 996.1 hPa NE 4 km/h 14 km/h 92% 0.0 mm 244 W/m2
10:39 8 °C 6 °C 996.2 hPa NE 5 km/h 16 km/h 92% 0.0 mm 227 W/m2
10:44 8 °C 7 °C 996.2 hPa NE 3 km/h 16 km/h 92% 0.0 mm 267 W/m2
10:49 8 °C 7 °C 996.3 hPa NE 6 km/h 11 km/h 91% 0.0 mm 204 W/m2
10:54 8 °C 6 °C 996.3 hPa ENE 3 km/h 11 km/h 91% 0.0 mm 213 W/m2
10:59 8 °C 6 °C 996.3 hPa ENE 4 km/h 10 km/h 91% 0.0 mm 243 W/m2
11:04 8 °C 7 °C 996.4 hPa NE 5 km/h 14 km/h 91% 0.0 mm 239 W/m2
11:09 8 °C 6 °C 996.5 hPa NE 4 km/h 14 km/h 90% 0.0 mm 190 W/m2
11:14 8 °C 6 °C 996.7 hPa NNE 4 km/h 11 km/h 90% 0.0 mm 169 W/m2
11:19 8 °C 6 °C 996.7 hPa NE 4 km/h 13 km/h 90% 0.0 mm 178 W/m2
11:24 8 °C 6 °C 996.7 hPa NE 4 km/h 13 km/h 90% 0.0 mm 139 W/m2
11:29 8 °C 6 °C 996.8 hPa NE 5 km/h 13 km/h 89% 0.0 mm 125 W/m2
11:34 8 °C 6 °C 996.9 hPa ENE 2 km/h 8 km/h 89% 0.0 mm 123 W/m2
11:39 8 °C 6 °C 996.9 hPa NE 2 km/h 6 km/h 89% 0.0 mm 120 W/m2
11:44 8 °C 6 °C 997.1 hPa NE 5 km/h 13 km/h 89% 0.0 mm 100 W/m2
11:49 8 °C 6 °C 997.1 hPa NNE 3 km/h 13 km/h 89% 0.0 mm 206 W/m2
11:54 8 °C 6 °C 997.2 hPa NNE 3 km/h 13 km/h 89% 0.0 mm 243 W/m2
11:59 8 °C 6 °C 997.2 hPa NE 4 km/h 13 km/h 89% 0.0 mm 209 W/m2
12:04 8 °C 6 °C 997.2 hPa NE 5 km/h 14 km/h 88% 0.0 mm 118 W/m2
12:09 8 °C 6 °C 997.3 hPa NE 4 km/h 14 km/h 88% 0.0 mm 76 W/m2
12:14 8 °C 6 °C 997.4 hPa NE 4 km/h 13 km/h 88% 0.0 mm 63 W/m2
12:19 8 °C 6 °C 997.5 hPa NNE 1 km/h 8 km/h 88% 0.0 mm 79 W/m2
12:24 8 °C 6 °C 997.6 hPa North 1 km/h 8 km/h 89% 0.0 mm 84 W/m2
12:29 8 °C 6 °C 997.6 hPa NE 4 km/h 11 km/h 89% 0.0 mm 83 W/m2
12:34 8 °C 6 °C 997.7 hPa NE 3 km/h 11 km/h 89% 0.0 mm 98 W/m2
12:39 8 °C 6 °C 997.8 hPa NE 2 km/h 6 km/h 89% 0.0 mm 227 W/m2
12:44 8 °C 6 °C 997.8 hPa NE 2 km/h 6 km/h 89% 0.0 mm 236 W/m2
12:49 8 °C 6 °C 997.9 hPa NE 3 km/h 6 km/h 89% 0.0 mm 223 W/m2
12:54 8 °C 6 °C 997.9 hPa NE 3 km/h 10 km/h 89% 0.0 mm 230 W/m2
12:59 8 °C 7 °C 997.9 hPa NNE 3 km/h 10 km/h 89% 0.0 mm 223 W/m2
13:04 8 °C 7 °C 997.9 hPa NE 3 km/h 10 km/h 88% 0.0 mm 192 W/m2
13:09 8 °C 7 °C 997.9 hPa NE 4 km/h 11 km/h 88% 0.0 mm 160 W/m2
13:14 8 °C 6 °C 998.0 hPa NE 4 km/h 11 km/h 87% 0.0 mm 109 W/m2
13:19 8 °C 6 °C 998.0 hPa NE 2 km/h 10 km/h 87% 0.0 mm 113 W/m2
13:24 8 °C 6 °C 998.1 hPa NE 4 km/h 11 km/h 87% 0.0 mm 88 W/m2
13:29 8 °C 6 °C 998.2 hPa NE 5 km/h 10 km/h 87% 0.0 mm 116 W/m2
13:34 8 °C 6 °C 998.2 hPa NE 5 km/h 13 km/h 87% 0.0 mm 107 W/m2
13:39 8 °C 6 °C 998.3 hPa NE 3 km/h 13 km/h 88% 0.0 mm 79 W/m2
13:44 8 °C 6 °C 998.3 hPa NE 4 km/h 11 km/h 88% 0.0 mm 81 W/m2
13:49 8 °C 6 °C 998.4 hPa NE 3 km/h 11 km/h 88% 0.0 mm 70 W/m2
13:54 8 °C 6 °C 998.4 hPa NE 5 km/h 11 km/h 89% 0.0 mm 98 W/m2
13:59 8 °C 6 °C 998.6 hPa ENE 5 km/h 13 km/h 89% 0.0 mm 102 W/m2
14:04 8 °C 6 °C 998.6 hPa NE 2 km/h 11 km/h 89% 0.0 mm 100 W/m2
14:09 8 °C 6 °C 998.7 hPa NE 2 km/h 6 km/h 90% 0.0 mm 79 W/m2
14:14 8 °C 6 °C 998.7 hPa NE 4 km/h 11 km/h 90% 0.0 mm 83 W/m2
14:19 8 °C 6 °C 998.9 hPa NE 2 km/h 11 km/h 90% 0.0 mm 83 W/m2
14:24 8 °C 6 °C 998.9 hPa ENE 4 km/h 8 km/h 90% 0.0 mm 113 W/m2
14:29 8 °C 6 °C 999.0 hPa ENE 3 km/h 8 km/h 91% 0.0 mm 113 W/m2
14:34 8 °C 6 °C 999.0 hPa NE 3 km/h 8 km/h 91% 0.0 mm 79 W/m2
14:39 8 °C 6 °C 999.0 hPa NE 4 km/h 13 km/h 91% 0.0 mm 102 W/m2
14:44 7 °C 6 °C 999.0 hPa NE 5 km/h 11 km/h 91% 0.0 mm 116 W/m2
14:49 7 °C 6 °C 999.0 hPa NNE 5 km/h 11 km/h 91% 0.0 mm 171 W/m2
14:54 7 °C 6 °C 999.1 hPa NNE 2 km/h 8 km/h 91% 1.0 mm 172 W/m2
14:59 8 °C 6 °C 999.2 hPa North 3 km/h 11 km/h 92% 1.0 mm 118 W/m2
15:04 8 °C 6 °C 999.2 hPa NE 4 km/h 13 km/h 91% 1.0 mm 67 W/m2
15:09 7 °C 6 °C 999.4 hPa NE 5 km/h 13 km/h 91% 1.0 mm 67 W/m2
15:14 7 °C 6 °C 999.5 hPa NE 4 km/h 11 km/h 91% 0.8 mm 69 W/m2
15:19 7 °C 6 °C 999.6 hPa NNE 3 km/h 13 km/h 91% 0.0 mm 95 W/m2
15:24 7 °C 6 °C 999.6 hPa NE 2 km/h 8 km/h 91% 0.0 mm 107 W/m2
15:29 7 °C 6 °C 999.7 hPa NE 4 km/h 8 km/h 92% 0.0 mm 127 W/m2
15:34 7 °C 6 °C 999.8 hPa NNE 5 km/h 13 km/h 92% 0.0 mm 128 W/m2
15:39 7 °C 6 °C 999.9 hPa NE 3 km/h 13 km/h 92% 0.0 mm 81 W/m2
15:44 7 °C 6 °C 999.9 hPa NE 4 km/h 10 km/h 91% 0.0 mm 102 W/m2
15:49 7 °C 6 °C 1000.0 hPa ESE 3 km/h 8 km/h 91% 0.0 mm 114 W/m2
15:54 7 °C 6 °C 1000.1 hPa NE 6 km/h 13 km/h 91% 0.8 mm 127 W/m2
15:59 7 °C 6 °C 1000.1 hPa NE 5 km/h 14 km/h 91% 0.8 mm 114 W/m2
16:04 7 °C 6 °C 1000.2 hPa NE 4 km/h 13 km/h 91% 0.8 mm 111 W/m2
16:09 7 °C 6 °C 1000.3 hPa NE 4 km/h 13 km/h 91% 0.8 mm 111 W/m2
16:14 7 °C 6 °C 1000.3 hPa NNE 5 km/h 13 km/h 91% 0.0 mm 127 W/m2
16:19 7 °C 6 °C 1000.3 hPa NE 5 km/h 11 km/h 92% 0.0 mm 162 W/m2
16:24 7 °C 6 °C 1000.4 hPa NE 3 km/h 11 km/h 92% 0.0 mm 181 W/m2
16:29 7 °C 6 °C 1000.3 hPa NE 4 km/h 14 km/h 92% 0.0 mm 181 W/m2
16:34 7 °C 6 °C 1000.4 hPa NNE 5 km/h 13 km/h 92% 0.0 mm 158 W/m2
16:36 7 °C 6 °C 1000.4 hPa NE 5 km/h 13 km/h 92% 0.0 mm 153 W/m2
16:44 7 °C 6 °C 1000.5 hPa NE 5 km/h 11 km/h 92% 0.0 mm 142 W/m2
16:49 7 °C 6 °C 1000.5 hPa NE 5 km/h 11 km/h 92% 0.0 mm 171 W/m2
16:54 7 °C 6 °C 1000.5 hPa NE 3 km/h 11 km/h 92% 0.0 mm 193 W/m2
16:59 7 °C 6 °C 1000.6 hPa NE 6 km/h 16 km/h 92% 0.0 mm 167 W/m2
17:04 7 °C 6 °C 1000.7 hPa NNE 3 km/h 10 km/h 91% 0.0 mm 134 W/m2
17:09 7 °C 6 °C 1000.8 hPa NNE 4 km/h 14 km/h 91% 0.0 mm 132 W/m2
17:14 7 °C 6 °C 1000.8 hPa NE 4 km/h 14 km/h 91% 0.0 mm 128 W/m2
17:19 7 °C 6 °C 1000.8 hPa NE 5 km/h 14 km/h 91% 2.3 mm 128 W/m2
17:24 7 °C 6 °C 1000.8 hPa NE 4 km/h 11 km/h 91% 2.3 mm 113 W/m2
17:29 7 °C 6 °C 1000.8 hPa ENE 3 km/h 10 km/h 91% 2.3 mm 120 W/m2
17:34 7 °C 6 °C 1000.9 hPa ENE 5 km/h 13 km/h 91% 1.3 mm 120 W/m2
17:39 7 °C 6 °C 1000.9 hPa NE 6 km/h 18 km/h 91% 0.8 mm 105 W/m2
17:44 7 °C 6 °C 1001.0 hPa NNE 5 km/h 13 km/h 91% 0.0 mm 113 W/m2
17:49 7 °C 6 °C 1001.1 hPa NE 4 km/h 13 km/h 91% 0.0 mm 77 W/m2
17:54 7 °C 6 °C 1001.1 hPa ENE 3 km/h 8 km/h 91% 0.0 mm 74 W/m2
17:59 7 °C 5 °C 1001.1 hPa NE 6 km/h 16 km/h 91% 0.0 mm 58 W/m2
18:04 7 °C 5 °C 1001.2 hPa ENE 4 km/h 16 km/h 91% 0.0 mm 58 W/m2
18:09 7 °C 5 °C 1001.3 hPa ENE 3 km/h 10 km/h 91% 0.0 mm 65 W/m2
18:14 7 °C 5 °C 1001.3 hPa ENE 3 km/h 10 km/h 91% 0.0 mm 67 W/m2
18:19 7 °C 5 °C 1001.3 hPa NE 5 km/h 13 km/h 91% 0.0 mm 76 W/m2
18:24 7 °C 5 °C 1001.3 hPa NE 4 km/h 10 km/h 91% 0.0 mm 76 W/m2
18:29 7 °C 5 °C 1001.4 hPa NE 5 km/h 11 km/h 91% 0.0 mm 74 W/m2
18:34 7 °C 5 °C 1001.4 hPa NE 5 km/h 13 km/h 91% 0.0 mm 62 W/m2
18:39 7 °C 5 °C 1001.6 hPa NE 1 km/h 6 km/h 91% 0.0 mm 53 W/m2
18:44 7 °C 5 °C 1001.7 hPa NE 2 km/h 11 km/h 91% 0.0 mm 35 W/m2
18:49 7 °C 5 °C 1001.7 hPa NNE 2 km/h 8 km/h 91% 0.0 mm 37 W/m2
18:54 7 °C 5 °C 1001.7 hPa NE 2 km/h 13 km/h 91% 0.0 mm 37 W/m2
18:59 7 °C 5 °C 1001.8 hPa NE 3 km/h 10 km/h 91% 0.0 mm 33 W/m2
19:04 7 °C 5 °C 1001.9 hPa NE 2 km/h 8 km/h 91% 0.0 mm 32 W/m2
19:09 7 °C 5 °C 1001.9 hPa ENE 4 km/h 8 km/h 91% 0.0 mm 28 W/m2
19:14 7 °C 5 °C 1001.9 hPa NE 4 km/h 11 km/h 91% 0.0 mm 26 W/m2
19:19 6 °C 5 °C 1002.0 hPa NNE 5 km/h 11 km/h 91% 0.0 mm 21 W/m2
19:24 6 °C 5 °C 1002.0 hPa NNE 3 km/h 8 km/h 91% 0.0 mm 16 W/m2
19:29 6 °C 5 °C 1002.1 hPa NE 2 km/h 8 km/h 91% 0.0 mm 14 W/m2
19:34 6 °C 5 °C 1002.2 hPa NE 2 km/h 6 km/h 91% 0.0 mm 14 W/m2
19:39 6 °C 5 °C 1002.2 hPa NE 1 km/h 5 km/h 91% 0.0 mm 11 W/m2
19:44 6 °C 5 °C 1002.3 hPa NE 2 km/h 8 km/h 91% 0.0 mm 11 W/m2
19:49 6 °C 5 °C 1002.3 hPa NNE 2 km/h 6 km/h 91% 0.0 mm 9 W/m2
19:54 6 °C 5 °C 1002.4 hPa NE 1 km/h 6 km/h 91% 0.0 mm 9 W/m2
19:59 6 °C 5 °C 1002.4 hPa NE 2 km/h 5 km/h 91% 0.0 mm 7 W/m2
20:04 6 °C 5 °C 1002.4 hPa NE 2 km/h 8 km/h 91% 0.0 mm 5 W/m2
20:09 6 °C 5 °C 1002.5 hPa East 3 km/h 8 km/h 91% 0.0 mm 7 W/m2
20:14 6 °C 5 °C 1002.5 hPa East 1 km/h 6 km/h 91% 0.0 mm 7 W/m2
20:19 6 °C 5 °C 1002.6 hPa ENE 3 km/h 8 km/h 91% 0.0 mm 5 W/m2
20:24 6 °C 5 °C 1002.7 hPa NE 2 km/h 8 km/h 91% 0.0 mm 5 W/m2
20:29 6 °C 5 °C 1002.7 hPa NE 1 km/h 5 km/h 91% 0.0 mm 0 W/m2
20:34 6 °C 5 °C 1002.8 hPa NE 1 km/h 5 km/h 91% 0.0 mm 0 W/m2
20:39 6 °C 5 °C 1002.9 hPa NE 3 km/h 11 km/h 91% 0.0 mm 0 W/m2
20:44 6 °C 5 °C 1003.0 hPa NE 2 km/h 6 km/h 91% 0.0 mm 0 W/m2
20:49 6 °C 5 °C 1003.0 hPa Calm   3 km/h 91% 0.0 mm 0 W/m2
20:54 6 °C 4 °C 1003.1 hPa NE 2 km/h 5 km/h 91% 0.0 mm 0 W/m2
20:59 6 °C 4 °C 1003.3 hPa NE 1 km/h 5 km/h 91% 0.0 mm 0 W/m2
21:04 6 °C 4 °C 1003.4 hPa NE 1 km/h 5 km/h 91% 0.0 mm 0 W/m2
21:09 6 °C 4 °C 1003.4 hPa Calm   5 km/h 91% 0.0 mm 0 W/m2
21:14 6 °C 4 °C 1003.5 hPa Calm   3 km/h 91% 0.0 mm 0 W/m2
21:19 6 °C 4 °C 1003.6 hPa Calm   3 km/h 91% 0.0 mm 0 W/m2
21:24 6 °C 5 °C 1003.6 hPa NE 1 km/h 3 km/h 92% 0.0 mm 0 W/m2
21:29 6 °C 5 °C 1003.7 hPa Calm   3 km/h 92% 0.0 mm 0 W/m2
21:34 6 °C 5 °C 1003.8 hPa Calm   3 km/h 92% 0.0 mm 0 W/m2
21:39 6 °C 5 °C 1003.9 hPa Calm   2 km/h 92% 0.0 mm 0 W/m2
21:44 6 °C 4 °C 1003.9 hPa Calm   3 km/h 92% 0.0 mm 0 W/m2
21:49 6 °C 5 °C 1004.0 hPa Calm   2 km/h 92% 0.0 mm 0 W/m2
21:54 6 °C 4 °C 1004.0 hPa Calm   3 km/h 92% 0.0 mm 0 W/m2
21:59 6 °C 4 °C 1004.1 hPa Calm   3 km/h 92% 0.0 mm 0 W/m2
22:04 6 °C 4 °C 1004.2 hPa Calm   2 km/h 92% 0.0 mm 0 W/m2
22:09 6 °C 4 °C 1004.2 hPa Calm     92% 0.0 mm 0 W/m2
22:14 6 °C 4 °C 1004.2 hPa Calm     92% 0.0 mm 0 W/m2
22:19 6 °C 4 °C 1004.3 hPa Calm     92% 0.0 mm 0 W/m2
22:24 6 °C 4 °C 1004.3 hPa Calm   2 km/h 92% 0.0 mm 0 W/m2
22:29 6 °C 4 °C 1004.5 hPa Calm   2 km/h 92% 0.0 mm 0 W/m2
22:34 6 °C 4 °C 1004.5 hPa Calm   3 km/h 92% 0.0 mm 0 W/m2
22:39 6 °C 4 °C 1004.6 hPa Calm   2 km/h 92% 0.0 mm 0 W/m2
22:44 6 °C 4 °C 1004.7 hPa Calm   2 km/h 92% 0.0 mm 0 W/m2
22:49 6 °C 4 °C 1004.7 hPa Calm   2 km/h 92% 0.0 mm 0 W/m2
22:54 6 °C 4 °C 1004.7 hPa Calm     92% 0.0 mm 0 W/m2
22:59 6 °C 4 °C 1004.7 hPa Calm     92% 0.0 mm 0 W/m2
23:04 6 °C 4 °C 1004.7 hPa Calm     92% 0.0 mm 0 W/m2
23:09 6 °C 4 °C 1004.8 hPa Calm   3 km/h 92% 0.0 mm 0 W/m2
23:14 6 °C 4 °C 1004.9 hPa Calm     92% 0.0 mm 0 W/m2
23:19 6 °C 4 °C 1004.9 hPa Calm   3 km/h 92% 0.0 mm 0 W/m2
23:24 6 °C 4 °C 1004.9 hPa NE 1 km/h 5 km/h 92% 0.0 mm 0 W/m2
23:29 6 °C 4 °C 1004.9 hPa NE 2 km/h 8 km/h 92% 0.0 mm 0 W/m2
23:34 6 °C 4 °C 1004.9 hPa NE 2 km/h 8 km/h 92% 0.0 mm 0 W/m2
23:39 6 °C 4 °C 1005.0 hPa Calm   2 km/h 92% 0.0 mm 0 W/m2
23:44 6 °C 4 °C 1005.1 hPa Calm   3 km/h 92% 0.0 mm 0 W/m2
23:49 6 °C 4 °C 1005.1 hPa Calm   5 km/h 92% 0.0 mm 0 W/m2
23:54 6 °C 4 °C 1005.2 hPa Calm   5 km/h 92% 0.0 mm 0 W/m2
23:59 6 °C 4 °C 1005.2 hPa Calm   3 km/h 92% 0.0 mm 0 W/m2
Compliments of Weather Underground - 4.25 mb